Lapse_Rate
3.8 4.0 3.9 4.6 3.8 3.9 3.8 3.4 3.1 3.0 3.1 3.1 3.3 3.3 2.4 2.1 2.0 4.1 4.3 5.2 4.0 3.2 3.9 5.5 6.0 6.2 5.7 6.2 5.6 4.8 6.5 6.5 6.5 6.5 6.5 7.0 6.6 6.8 6.4 7.1 6.4 6.3 6.0 5.0 2.8
3.9 4.4 4.6 4.3 4.2 4.3 3.8 3.8 3.5 3.3 3.0 3.2 3.2 3.3 3.2 2.5 2.8 3.8 3.8 4.5 2.7 3.3 5.5 5.8 6.3 6.5 6.8 6.7 6.2 6.8 6.5 6.5 6.6 6.6 6.5 6.8 6.9 7.0 6.8 6.8 6.7 6.5 5.6 2.5 2.4
4.2 3.9 4.3 3.8 4.1 4.0 4.3 4.3 4.3 3.8 3.5 3.3 3.4 3.4 3.5 3.5 5.3 5.7 4.8 3.7 1.2 1.4 4.4 5.4 6.1 7.2 7.0 6.6 6.9 6.9 6.5 6.5 6.7 7.0 7.0 6.8 6.8 6.5 6.8 6.5 6.9 6.8 6.3 4.4 3.1
4.6 4.2 4.2 3.8 4.2 3.9 3.7 3.7 4.7 4.7 4.2 3.6 3.7 3.9 3.8 5.7 6.5 6.1 5.1 3.8 3.0 3.1 4.8 6.3 6.9 7.0 6.7 6.5 6.8 6.5 6.8 6.8 6.8 6.4 6.9 6.6 7.1 6.8 6.9 6.9 6.8 7.0 6.8 5.7 4.4
5.2 5.0 4.9 4.8 4.3 3.7 4.0 3.5 3.6 4.4 4.5 4.5 4.0 4.1 5.4 6.3 6.4 5.5 4.5 4.6 5.8 6.1 6.5 7.1 6.9 7.0 6.5 6.7 6.8 6.5 6.6 7.0 7.0 6.5 6.9 6.6 6.8 6.7 6.8 7.2 6.1 6.1 5.3 5.3 5.7
6.4 6.0 5.9 5.3 4.8 4.7 3.9 3.6 3.8 3.7 4.2 4.3 4.7 4.6 5.9 6.7 5.8 4.6 3.7 5.1 6.9 6.9 6.3 6.5 6.7 6.6 6.9 6.8 6.6 6.9 6.8 6.8 6.8 7.0 7.0 6.6 6.7 6.7 6.3 5.6 5.5 5.6 6.1 5.9 5.2
7.0 6.8 6.4 6.1 5.5 4.8 4.5 4.0 4.0 3.7 3.7 4.0 4.8 5.5 6.3 6.5 5.8 4.0 4.0 3.4 4.4 5.7 6.5 6.3 6.7 7.0 6.7 6.5 6.9 6.9 6.5 6.5 6.7 6.8 6.6 6.9 6.5 6.5 6.5 6.0 5.8 5.7 5.1 4.7 4.4
7.3 7.1 6.5 6.3 6.0 5.6 4.9 4.7 4.2 4.0 4.0 3.8 4.5 6.3 7.2 7.6 5.9 5.7 4.9 4.2 4.7 5.7 5.6 6.2 6.4 7.0 7.1 6.7 6.9 6.5 6.5 6.5 6.5 6.6 6.6 6.7 6.5 6.5 6.5 6.3 7.0 5.5 4.7 3.6 2.9
7.4 7.1 6.8 6.4 6.3 5.6 5.3 5.0 4.6 4.5 4.3 4.4 5.1 6.8 7.0 7.5 5.6 5.7 4.8 4.8 6.4 7.0 6.6 7.5 7.2 7.1 6.8 6.5 6.5 6.5 6.5 6.5 6.5 6.7 6.5 6.5 6.5 6.5 6.7 6.7 6.9 6.0 4.8 4.2 3.9
7.2 7.3 7.2 6.8 6.3 5.8 5.5 5.7 6.2 6.2 6.5 5.7 6.0 6.5 7.2 7.5 6.8 6.3 6.3 5.8 7.1 6.2 7.3 7.3 7.2 6.5 6.5 6.5 6.5 6.5 6.5 6.5 6.5 6.5 6.5 6.5 6.5 6.5 7.0 7.0 6.9 6.8 4.5 4.4 4.3
7.4 7.3 7.4 7.3 6.7 6.0 5.2 6.7 6.9 6.5 6.5 6.9 7.1 6.2 7.1 6.4 8.3 7.3 6.5 5.9 7.8 7.5 6.5 6.9 6.5 6.5 6.5 6.5 6.5 6.5 6.5 6.5 6.5 6.5 6.5 6.5 6.5 6.5 6.8 6.9 6.9 6.9 4.6 4.4 4.5
7.7 7.6 7.5 7.4 7.0 6.4 5.5 7.1 7.3 6.4 6.7 6.9 7.0 6.8 7.2 7.1 7.0 7.4 8.2 7.2 7.0 6.5 6.5 6.5 6.5 6.5 6.5 6.5 6.5 6.5 6.5 6.5 6.5 6.5 6.5 6.5 6.5 6.5 6.5 6.7 7.0 7.0 6.1 4.8 4.6
7.9 7.7 7.6 7.4 7.1 5.5 5.5 6.5 7.1 6.2 6.5 7.0 7.0 7.5 7.5 7.0 6.9 6.8 7.8 7.5 6.5 6.5 6.5 6.5 6.5 6.5 6.5 6.5 6.5 6.5 6.5 6.5 6.5 6.5 6.5 6.5 6.5 6.5 6.5 6.9 7.0 6.0 5.8 4.9 5.8
7.9 7.7 7.6 7.5 6.9 5.6 5.8 5.0 4.9 6.6 6.5 6.5 6.7 7.3 7.7 7.5 6.6 7.3 7.7 7.3 6.6 6.5 6.5 6.5 6.5 6.5 6.5 6.5 6.5 6.5 6.5 6.5 6.5 6.5 6.5 6.5 6.5 6.5 6.5 6.5 6.5 6.8 5.7 5.7 5.1
8.2 7.9 7.8 7.8 6.2 6.2 5.8 4.8 6.3 6.7 6.5 6.5 6.7 8.0 7.7 6.9 7.0 7.2 7.3 7.4 6.5 6.5 6.5 6.5 6.5 6.5 6.5 6.5 6.5 6.5 6.5 6.5 6.5 6.5 6.5 6.5 6.5 6.5 6.5 6.5 6.5 6.5 6.9 6.7 5.6
8.0 8.2 8.1 6.8 6.1 6.5 5.8 5.4 7.1 6.5 6.5 6.5 6.7 6.5 6.5 6.8 6.8 7.2 7.2 7.8 7.3 6.5 6.5 6.5 6.8 6.5 6.5 6.5 6.5 6.5 6.5 6.5 6.5 6.5 6.5 6.5 6.5 6.5 6.5 6.5 6.5 6.6 7.0 6.3 6.7
8.1 8.1 7.9 6.6 6.3 5.5 6.9 6.7 6.5 6.5 6.5 6.5 6.5 6.5 6.5 6.5 6.5 6.5 6.5 6.5 6.5 6.5 6.5 6.5 6.5 6.5 6.5 6.5 6.5 6.5 6.5 6.5 6.5 6.5 6.5 6.5 6.5 6.5 6.5 6.5 6.5 6.5 6.8 5.1 5.8
7.5 7.6 6.8 6.3 6.7 6.0 6.6 6.5 6.5 6.5 6.5 6.5 6.5 6.5 6.5 6.5 6.5 6.5 6.5 6.5 6.5 6.5 6.5 6.5 6.5 6.5 6.5 6.5 6.5 6.5 6.5 6.5 6.5 6.5 6.5 6.5 6.5 6.5 6.5 6.6 6.8 6.3 5.5 5.6 6.0
7.7 4.8 6.3 5.5 5.4 6.2 7.0 6.5 6.5 6.5 6.5 6.5 6.5 6.5 6.5 6.5 6.5 6.5 6.5 6.5 6.5 6.5 6.5 6.5 6.5 6.5 6.5 6.5 6.5 6.5 6.5 6.5 6.5 6.5 6.5 6.5 6.5 6.5 6.5 6.5 6.5 6.7 6.9 7.0 7.3
5.6 7.2 7.6 5.4 4.9 6.7 6.6 6.5 6.5 6.5 6.5 6.5 6.5 6.5 6.5 6.5 6.5 6.5 6.5 6.5 6.5 6.5 6.5 6.5 6.5 6.5 6.5 6.6 6.5 6.5 6.5 6.5 6.5 6.5 6.5 6.5 6.5 6.5 6.5 6.5 6.5 6.5 6.8 7.1 7.4
6.6 7.0 5.5 4.7 7.1 7.0 6.5 6.5 6.5 6.9 6.8 6.5 6.5 6.5 6.5 6.5 6.5 6.5 6.5 6.5 6.5 6.5 6.5 6.5 6.5 6.5 6.5 6.5 6.5 6.5 6.5 6.5 6.5 6.5 6.5 6.5 6.5 6.5 6.5 6.5 6.5 6.5 6.9 7.1 7.1
6.8 6.5 4.7 6.1 6.5 6.6 6.5 6.5 6.7 6.5 6.9 6.5 6.5 6.5 6.5 6.5 6.5 6.5 6.5 6.5 6.6 6.5 6.5 6.5 6.5 6.5 6.5 6.5 6.5 6.5 6.5 6.5 6.5 6.5 6.5 6.5 6.5 6.5 6.5 6.5 6.5 6.6 7.0 7.2 7.2
6.7 6.5 5.4 6.9 6.5 6.5 6.5 6.5 6.5 6.5 6.5 6.5 6.5 6.5 6.5 6.5 6.5 6.5 6.5 6.5 6.4 6.5 6.5 6.5 6.5 6.5 6.5 6.5 6.5 6.5 6.5 6.5 6.5 6.5 6.5 6.5 6.5 6.5 6.5 6.5 6.7 6.7 7.0 7.2 7.3
6.2 6.5 6.5 6.4 6.8 6.5 6.5 6.5 6.5 6.8 6.5 6.5 6.5 6.5 6.5 6.5 6.5 6.5 6.5 6.5 6.4 6.5 6.4 6.4 6.5 6.5 6.5 6.5 6.5 6.5 6.5 6.5 6.5 6.5 6.5 6.5 6.5 6.5 6.5 6.5 6.5 6.8 7.1 7.3 7.3
5.7 6.5 6.2 6.5 6.5 6.5 6.5 6.5 6.5 6.5 6.6 6.7 6.5 6.5 6.5 6.5 6.5 6.5 6.5 6.5 6.5 6.4 6.5 6.5 6.5 6.5 6.5 6.5 6.5 6.5 6.5 6.5 6.5 6.5 6.5 6.5 6.5 6.5 6.5 6.5 6.5 7.0 7.2 7.2 7.1
6.3 6.8 6.9 6.6 6.6 6.5 6.5 6.5 6.5 6.5 6.5 6.5 6.5 6.5 6.5 6.5 6.5 6.5 6.5 6.5 6.5 6.5 6.5 6.5 6.5 6.5 6.5 6.5 6.5 6.5 6.5 6.5 6.5 6.5 6.5 6.5 6.5 6.5 6.5 6.8 6.7 6.9 7.1 7.0 7.0
5.8 5.9 6.8 6.6 6.5 6.5 6.5 6.5 6.5 6.5 6.6 6.6 6.5 6.5 6.5 6.5 6.6 6.8 6.6 6.6 6.5 6.5 6.5 6.5 6.5 6.5 6.5 6.5 6.5 6.5 6.5 6.5 6.5 6.5 6.5 6.5 6.5 6.5 6.5 6.5 6.5 6.9 7.2 6.9 6.9
Wind_Speed
14 13 12 11 10 15 15 14 14 13 12 12 10 9 9 14 18 4 10 10 6 7 1 1 0 2 2 3 3 3 3 5 5 7 4 1 3 1 3 3 1 2 4 2 3
16 17 12 10 11 11 16 15 14 15 14 12 9 8 9 10 4 11 12 19 18 5 3 4 3 3 2 3 3 5 4 9 5 5 3 1 2 3 1 1 2 2 3 3 6
15 16 12 10 11 12 12 17 15 15 14 13 9 6 6 7 4 6 4 4 13 13 7 4 4 3 3 3 6 5 8 6 5 10 5 4 4 2 3 5 6 5 6 5 6
14 15 14 11 10 11 12 13 17 15 14 13 10 5 2 3 7 2 6 8 10 9 6 5 5 7 5 7 5 5 8 7 5 5 4 3 4 5 8 9 8 10 7 5 10
13 13 13 12 13 12 13 12 14 16 14 13 11 8 1 4 9 5 10 6 0 5 6 4 5 6 7 5 5 7 8 6 9 6 5 3 10 7 17 14 15 11 7 10 10
12 12 12 12 12 13 13 11 13 14 15 14 14 11 3 15 5 6 4 2 2 3 3 6 5 6 4 6 9 2 6 9 5 7 5 7 7 6 11 3 6 9 13 12 13
12 12 10 12 12 13 13 14 12 12 14 16 19 8 9 20 3 5 4 1 1 3 3 4 7 4 4 2 5 2 10 11 9 6 7 8 9 12 17 4 8 9 12 11 11
14 11 10 11 11 10 11 13 12 10 11 16 21 8 11 4 24 18 15 8 4 3 3 7 2 4 4 2 1 3 2 9 6 8 6 10 18 11 7 1 6 7 6 6 5
14 9 9 10 7 8 11 14 13 11 8 13 8 6 9 4 11 15 12 12 7 4 4 6 1 4 3 8 5 4 8 9 9 11 5 11 10 10 6 1 6 4 4 5 4
12 10 7 7 7 10 13 15 8 4 4 9 4 3 7 5 5 8 14 9 6 6 3 6 4 7 5 11 15 11 8 8 13 2 5 8 14 14 7 5 8 6 5 6 5
9 9 5 4 7 9 6 3 2 4 7 8 8 4 1 6 3 5 6 12 13 9 14 6 9 19 24 19 14 10 18 17 7 7 4 11 15 16 15 11 13 8 8 8 8
8 7 4 3 6 8 2 3 3 3 7 20 11 21 8 7 4 3 12 11 14 22 16 7 22 23 14 12 15 17 19 18 8 9 4 11 21 17 16 18 16 16 13 12 9
9 8 6 3 6 3 3 5 11 12 6 8 24 21 17 9 8 9 17 10 10 15 24 26 29 16 19 16 19 21 23 18 13 4 9 8 28 22 20 17 15 13 12 13 14
7 7 7 3 2 2 3 6 8 4 5 8 10 11 11 8 8 11 21 9 10 22 22 17 25 14 20 26 20 22 17 14 14 7 11 3 18 17 6 13 10 15 12 14 16
8 8 7 6 1 1 2 7 8 4 6 8 20 10 16 17 8 19 11 13 17 11 14 23 19 24 17 26 20 20 13 16 14 15 12 24 10 11 12 21 17 15 17 16 17
9 8 6 1 2 3 7 6 2 8 7 4 11 18 16 24 26 5 21 12 6 6 13 28 13 18 31 21 20 11 2 6 5 8 11 23 15 27 18 18 11 13 14 15 17
10 10 5 6 3 4 1 1 4 12 3 7 9 15 27 22 24 23 23 23 17 16 17 23 23 10 12 19 17 21 15 6 7 8 13 11 14 31 3 13 19 17 15 15 17
11 11 5 4 10 1 2 2 12 8 11 1 3 12 21 22 19 27 20 23 27 21 15 18 14 26 18 26 21 26 20 8 17 13 16 9 15 18 3 6 10 7 11 16 19
7 1 1 3 10 3 3 6 6 8 6 14 6 8 20 19 13 18 29 29 30 31 20 18 20 9 25 15 21 21 18 30 4 1 4 12 23 15 6 6 7 9 14 19 21
3 2 4 9 13 4 4 6 4 9 9 5 14 10 6 19 17 21 21 25 27 34 28 14 15 17 18 21 18 14 26 11 13 14 20 16 21 18 10 15 14 14 16 18 20
3 2 3 14 4 3 6 7 8 17 15 4 5 8 19 6 18 15 10 13 28 27 31 25 13 8 18 17 27 18 19 12 10 9 13 19 17 10 17 18 18 19 17 19 20
3 4 4 8 5 3 12 8 9 14 8 14 10 16 19 11 8 25 18 21 29 33 31 34 13 20 20 22 28 28 23 23 9 17 13 12 21 5 11 17 16 15 17 18 20
3 3 4 4 6 9 4 5 11 11 7 6 9 10 8 6 6 9 19 23 11 31 20 22 15 11 23 11 2 28 26 24 26 0 21 13 22 1 2 7 11 16 17 18 20
3 3 3 4 4 5 11 6 9 8 16 17 19 16 18 18 17 12 15 14 14 17 34 18 22 29 22 32 20 17 30 29 26 16 20 19 34 6 6 9 10 12 16 19 19
5 4 4 5 9 14 16 7 6 4 13 13 9 22 19 14 17 14 21 24 21 17 17 25 27 28 35 29 17 24 27 31 30 27 22 32 26 21 14 14 17 17 16 18 19
4 3 3 3 5 18 19 14 23 20 14 11 19 14 16 21 17 23 15 12 14 14 18 16 12 27 28 26 26 21 22 30 31 33 28 33 26 14 12 15 15 18 20 22 21
3 3 1 3 8 10 11 17 18 18 13 22 20 13 14 18 15 21 19 17 16 16 25 19 13 11 26 28 22 25 37 31 27 29 28 30 41 8 9 16 18 19 21 21 20
Wind_Direction
335 318 311 318 298 267 266 263 264 260 259 272 282 301 320 328 325 305 268 231 195 211 119 350 301 105 88 129 128 141 204 225 215 184 239 151 15 200 301 255 312 218 178 53 89
330 325 301 304 309 324 264 265 262 261 258 256 268 289 311 336 320 279 247 249 234 156 250 217 234 158 159 173 167 190 207 212 219 214 230 292 277 306 208 294 256 248 227 101 161
324 330 308 317 306 305 326 261 259 259 254 253 250 260 304 326 330 258 351 307 260 210 223 190 166 165 196 173 186 180 234 203 231 231 252 295 274 223 277 255 204 197 249 190 189
319 329 331 318 310 322 318 332 261 250 250 241 238 232 275 285 243 135 57 58 90 143 168 201 165 159 196 205 193 228 232 214 231 214 191 244 297 287 254 254 247 242 238 215 204
314 320 326 327 322 314 302 308 312 257 242 234 214 191 174 217 236 219 313 319 250 150 176 189 174 169 193 199 198 230 242 216 230 243 244 234 247 260 268 275 265 275 240 244 237
297 305 313 317 323 322 310 302 307 290 243 221 192 164 176 243 243 264 344 323 300 201 209 188 213 222 213 213 202 236 244 253 239 243 226 228 248 182 264 259 272 265 262 260 249
290 295 311 315 316 322 323 303 289 312 258 215 176 158 222 235 174 145 21 121 76 350 252 210 216 217 174 212 212 251 278 273 245 235 233 199 244 222 255 282 282 289 270 263 259
286 291 305 307 308 317 322 307 280 283 307 211 173 171 241 215 247 261 265 276 239 221 223 283 296 217 196 247 37 210 213 265 262 220 224 195 256 255 213 195 305 291 274 273 274
270 276 300 309 318 326 324 317 283 275 277 206 156 189 250 165 219 234 237 235 242 218 199 265 243 207 164 212 240 217 229 222 275 205 151 212 259 245 171 231 312 296 237 241 245
266 264 282 302 320 327 320 304 278 285 249 177 172 120 260 202 179 220 218 210 205 202 221 181 204 210 198 198 222 220 218 235 244 173 196 215 246 261 241 250 294 302 221 217 213
276 263 259 309 319 334 339 335 182 242 217 216 191 167 7 195 78 202 165 191 215 218 209 174 206 218 212 213 234 233 231 240 229 240 261 248 253 250 265 271 271 254 233 211 213
269 254 240 286 314 328 319 244 257 51 256 223 220 213 193 86 16 222 157 177 197 211 184 188 223 222 222 201 217 229 240 240 270 241 260 272 268 262 256 259 260 255 216 207 195
266 263 256 273 320 339 212 241 284 15 257 238 219 210 218 227 226 227 181 195 200 213 199 203 226 207 206 202 211 225 228 233 242 316 270 298 282 264 254 243 231 223 220 203 197
269 273 273 276 310 249 252 340 341 143 247 227 210 219 201 196 229 185 189 178 211 214 206 226 237 223 206 217 206 234 220 234 228 246 253 194 275 266 261 240 228 228 204 200 185
261 254 264 215 187 248 313 329 304 141 240 213 203 156 173 189 142 202 182 211 217 189 177 221 217 215 216 219 205 240 207 217 220 230 266 247 272 258 243 240 232 223 210 203 187
259 258 259 352 188 254 318 318 270 217 229 235 151 182 169 198 216 179 187 211 203 213 207 233 216 214 221 221 210 207 236 193 199 209 241 245 227 265 232 234 232 223 208 196 182
251 255 235 164 214 173 354 324 202 215 131 202 198 188 201 199 209 202 186 195 192 193 206 230 234 228 207 214 198 195 183 186 208 201 242 176 212 251 277 227 225 215 197 182 180
249 249 240 171 204 200 57 165 227 236 216 21 212 198 205 197 208 205 195 199 205 200 198 218 225 209 205 211 198 198 194 202 219 225 252 177 232 246 239 218 197 207 187 171 175
232 84 209 212 184 136 144 218 231 252 242 244 253 277 204 206 203 191 211 204 198 202 206 208 233 195 199 204 193 199 204 221 275 14 262 222 251 272 198 225 213 195 168 180 180
131 191 204 195 150 118 226 225 249 250 318 330 245 226 235 189 198 191 194 217 209 204 205 206 237 207 192 196 212 196 202 199 221 223 233 241 247 242 189 203 200 198 197 184 176
141 223 244 135 131 173 226 217 235 246 267 271 299 310 233 257 210 199 194 211 212 203 215 227 238 204 169 189 194 200 199 210 208 218 221 245 248 233 204 202 198 206 190 177 177
159 212 168 146 189 196 225 200 236 257 245 242 258 267 269 274 304 219 209 206 201 205 208 219 227 237 217 211 201 201 201 204 202 207 228 253 259 154 210 201 201 191 186 182 178
192 193 179 168 211 217 260 252 233 253 249 248 245 219 264 307 308 291 221 217 199 207 205 209 221 238 231 248 310 218 213 206 213 92 215 209 251 179 191 184 190 179 178 175 170
163 217 175 212 211 199 218 223 232 217 239 243 259 263 265 270 249 272 298 277 234 214 209 207 222 218 221 215 202 209 217 219 213 219 226 218 250 183 193 201 191 184 174 174 173
187 209 195 198 222 228 233 199 205 217 222 225 248 240 244 247 271 246 261 289 280 226 210 207 221 219 234 239 201 211 215 218 219 219 220 234 238 240 194 194 196 180 171 172 172
188 181 183 208 207 211 228 234 244 249 240 234 229 244 235 248 245 276 271 245 285 301 232 195 226 226 240 234 234 236 230 225 225 228 227 240 247 260 189 193 175 177 179 181 177
182 173 247 196 210 228 217 226 235 236 245 242 253 236 236 241 239 250 251 252 245 270 284 273 207 195 228 223 222 233 233 233 243 240 233 235 238 219 188 184 182 187 187 179 171